Location: Bun Machan
(52.1403°N, 7.3744°W)
Time: 08:43:01
(UTC+00:00)

Helios 1B rocket - Pass Details

Date: 14 July 2020
Orbit: 574 x 584 km, 98.1° (Epoch: 04 August)

Event Time Altitude Azimuth Distance (km) Brightness Sun altitude
Rises 00:25:09 0° 23° (NNE) 2,812 7.2 -16.2°
Reaches altitude 10° 00:27:33 10° 34° (NE) 1,905 5.9 -16.2°
Maximum altitude 00:31:09 29° 95° (E) 1,088 3.7 -16.2°
Enters shadow 00:32:50 21° 135° (SE) 1,310 3.8 -16.2°
